This is the latest recevied weather packets stored in our database for station/object XW7RMR. If no packets are shown the sender has not sent any weather packets the latest 10 day(s).
| Time | Temp. | Humidity | Pressure | Rain* | Wind** | Luminosity | Snow |
|---|---|---|---|---|---|---|---|
| 1777598068 | 27.22° C | 29% | 1012.6 hPa | 0 mm | - | 157 W/m² | - |
| 1777597767 | 27.22° C | 29% | 1012.6 hPa | 0 mm | - | 225 W/m² | - |
| 1777597462 | 27.22° C | 31% | 1012.8 hPa | 0 mm | - | 239 W/m² | - |
| 1777597159 | 27.22° C | 30% | 1012.8 hPa | 0 mm | - | 245 W/m² | - |
| 1777596855 | 27.22° C | 29% | 1012.9 hPa | 0 mm | - | 254 W/m² | - |
| 1777596550 | 27.22° C | 30% | 1012.9 hPa | 0 mm | - | 270 W/m² | - |
| 1777596248 | 27.22° C | 29% | 1012.6 hPa | 0 mm | - | 283 W/m² | - |
| 1777595945 | 27.78° C | 29% | 1012.8 hPa | 0 mm | - | 299 W/m² | - |
| 1777595645 | 27.78° C | 30% | 1012.9 hPa | 0 mm | - | 301 W/m² | - |
| 1777595341 | 27.22° C | 30% | 1012.9 hPa | 0 mm | - | 334 W/m² | - |
| 1777595037 | 27.78° C | 30% | 1013 hPa | 0 mm | - | 358 W/m² | - |
| 1777594734 | 28.33° C | 29% | 1013.1 hPa | 0 mm | - | 373 W/m² | - |
| 1777594431 | 27.78° C | 29% | 1013.1 hPa | 0 mm | - | 390 W/m² | - |
| 1777594126 | 27.22° C | 28% | 1013 hPa | 0 mm | - | 405 W/m² | - |
| 1777593822 | 27.22° C | 29% | 1013.2 hPa | 0 mm | - | 422 W/m² | - |
| 1777593519 | 27.22° C | 30% | 1013.1 hPa | 0 mm | - | 436 W/m² | - |
| 1777593218 | 28.89° C | 27% | 1013.2 hPa | 0 mm | - | 451 W/m² | - |
| 1777592918 | 28.89° C | 26% | 1013.2 hPa | 0 mm | - | 465 W/m² | - |
| 1777592614 | 28.33° C | 26% | 1013.2 hPa | 0 mm | - | 478 W/m² | - |
| 1777592310 | 27.22° C | 28% | 1013.4 hPa | 0 mm | - | 494 W/m² | - |
| 1777592006 | 27.22° C | 28% | 1013.4 hPa | 0 mm | - | 508 W/m² | - |
| 1777591703 | 26.67° C | 28% | 1013.5 hPa | 0 mm | - | 522 W/m² | - |
| 1777591398 | 26.67° C | 28% | 1013.6 hPa | 0 mm | - | 535 W/m² | - |
| 1777591094 | 26.67° C | 31% | 1013.6 hPa | 0 mm | - | 550 W/m² | - |
| 1777590790 | 26.67° C | 29% | 1013.7 hPa | 0 mm | - | 562 W/m² | - |
* Rain latest hour (hover to see other rain measurements)
** Current wind speed in m/s (hover to see current wind gust speed)